Location: Famechon
(49.7599°N, 2.0615°E)
Time: 20:45:21
(UTC+00:00)

Cosmos 1741 Rocket - Pass Details

Date: 30 March 2025
Orbit: 758 x 778 km, 74.0° (Epoch: 28 April)

Event Time Altitude Azimuth Distance (km) Brightness Sun altitude
Rises 00:55:46 0° 335° (NNW) 3,237 7.8 -34.9°
Reaches altitude 10° 00:58:09 10° 334° (NNW) 2,309 6.9 -34.8°
Enters shadow 01:00:09 24° 333° (NNW) 1,555 5.9 -34.7°
